Погода в Дагде

Латвия     56°05′40″N   27°32′13″E
темп.,
°C
ветер,
м/с
пор.,
м/с
влажн.,
%
обл.,
%
осадки,
мм/ч
давл.,
гПа
погр.,
м
5 марта, пт
пт523:00−3ссз27690 0.0 1010519
02:00−3з36690 0.0 1010378
05:00−3зсз498432 0.0 10111071
08:00−3зсз597763 0.1 1011940
11:00−2ссз684899 0.3 10131575
14:00−1ссз593559 0.3 10152242
17:00−2ссз3741100 0.0 10161695
20:00−4ссв115373 0.0 101722
6 марта, сб
сб623:00−3с015495 0.0 1019415
02:00−5с246995 0.0 1020214
05:00−6сз24729 0.0 1021147
08:00−6сз37704 0.0 1022528
11:00−2зсз46512 0.0 10221152
14:000з58421 0.0 10201475
17:00−1зюз51252100 0.0 10171412
20:00−1зюз71565100 0.0 10141280
7 марта, вс
вс723:00−1зюз71761100 0.0 10101365
02:00−1зюз81683100 0.1 10051240
05:000сз81391100 3.3 10021156
08:00−4сз6144583 3.5 10051643
11:00−2зсз611390 0.0 10052360
14:00−1з7115150 0.5 10041870
17:00−2з61358100 0.5 10011868
20:00−4зсз71485100 0.9 10011543
8 марта, пн
пн823:00−6сз7136998 0.1 10031331
02:00−6ссз6117699 0.1 10061366
05:00−8ссз386533 0.0 1008765
08:00−8сз376617 0.0 1010654
11:00−5ссз465619 0.0 10111265
14:00−5ссз467060 0.1 1013967
17:00−6ссз4762100 0.1 10141253
20:00−8с5872100 0.1 10171190
9 марта, вт
вт923:00−9с4874100 0.0 1020842
02:00−10с387577 0.0 1022540
05:00−11ссз27780 0.0 1023408
08:00−10ссз37770 0.0 1025440
11:00−6ссз35570 0.0 1026729
14:00−3сз34480 0.0 1026997
17:00−3зсз25540 0.0 1026718
20:00−6з39700 0.0 1027323